Regional Weather Roundup
Issued by NWS State College, PA

Home | Current Version | Previous Version | Graphics & Text | Print | Product List | Glossary On
Versions: 1 2 3 4 5 6 7 8 9 10 11 12 13 14 15 16 17 18 19 20 21 22 23 24 25 26 27 28 29 30 31 32 33 34 35 36 37 38 39 40 41 42 43 44 45 46 47 48 49 50
000
ASUS41 KCTP 302303
RWRCTP

REGIONAL WEATHER ROUNDUP
NATIONAL WEATHER SERVICE STATE COLLEGE PA
700 PM EDT TUE SEP 30 2014

Note: "fair" indicates few or no clouds below 12,000 feet with no
significant weather and/or obstructions to visibility.

* = STATION THAT DOES NOT REPORT PRECIPITATION /E.G. RAIN...SNOW...ETC/
    THUNDER OR FOG.

PAZ002>004-007>009-013>016-020>023-029>032-010000-
WESTERN PENNSYLVANIA

CITY           SKY/WX    TMP DP  RH WIND       PRES   REMARKS
ERIE           PTCLDY    63  55  77 NW3       29.94R
MEADVILLE      CLOUDY    60  57  89 N6        29.94R
FRANKLIN*      PTCLDY    59  52  77 N3        29.94R
NEW CASTLE       N/A     60  58  93 VRB3      29.94R
BEAVER COUNTY  MOCLDY    64  57  77 CALM      29.91R
BUTLER*        CLEAR     64  55  72 CALM      29.93R
PITTSBURGH INT PTCLDY    65  58  78 CALM      29.90S
PITTSBURGH     PTCLDY    64  53  67 S6        29.90S
INDIANA*       CLEAR     64  54  68 CALM      29.96R
LATROBE        PTCLDY    63  59  88 W7        29.93R
WASHINGTON CO* MOCLDY    64  57  77 SE5       29.92S
$$

PAZ004>006-010>012-017>019-024>028-033>037-041-042-045-046-049>053-010000-
CENTRAL PENNSYLVANIA

CITY           SKY/WX    TMP DP  RH WIND       PRES   REMARKS
BRADFORD       CLOUDY    61  53  75 N7        29.94R
DUBOIS         CLOUDY    63  53  70 W5        29.93R
CLEARFIELD     CLOUDY    65  56  72 N3        29.92R
JOHNSTOWN      MOCLDY    62  51  67 W3        29.94R
ALTOONA        CLOUDY    62  60  93 W5        29.93R
STATE COLLEGE  TSTM      59  57  94 VRB5      29.93R
WILLIAMSPORT   MOCLDY    67  61  81 CALM      29.88S
SELINSGROVE    CLOUDY    68  63  84 CALM      29.90R
FT INDIANTOWN  MOCLDY    70  64  81 SW3       29.90R
CAPITAL CITY   PTCLDY    67  61  81 CALM      29.89R
HARRISBURG     MOCLDY    66  62  87 CALM      29.88R
YORK           PTCLDY    68  60  75 SE5       29.89R
$$

PAZ038>040-043-044-047-048-054-055-060>062-067>071-010000-
EASTERN PENNSYLVANIA

CITY           SKY/WX    TMP DP  RH WIND       PRES   REMARKS
SCRANTON       CLOUDY    70  54  56 CALM      29.92R
MOUNT POCONO   MOCLDY    64  53  67 SE10      29.96R
ALLENTOWN      MOCLDY    70  57  63 SE10      29.91R
QUAKERTOWN*    MOCLDY    68  57  68 E7        29.93R
READING        MOCLDY    73  54  51 SE7       29.89R
LANCASTER      CLOUDY    71  58  63 S3        29.89R
COATESVILLE    MOCLDY    68  59  73 CALM      29.91R
POTTSTOWN      PTCLDY    69  57  65 VRB3      29.92R
BLUE BELL      PTCLDY    68  59  73 E9        29.90S
DOYLESTOWN     PTCLDY    65  58  78 CALM      29.92R
WILLOW GROVE   NOT AVBL
NORTH PHILA    CLEAR     68  57  68 E13       29.93R
PHILADELPHIA   MOCLDY    69  59  70 E16       29.91R
$$



USA.gov is the U.S. government's official web portal to all federal, state and local government web resources and services.